Simultaneous Nadir Overpasses (SNOs) Predictions

Prediction of SNOs between LANDSAT-8 and METOP-B Satellite Orbit:

Table of predicted SNOs for the next 14.0 days since TLE Epoch: 11/17/2018
Index Date (LANDSAT-8) Time (LANDSAT-8) Lat,Lon (LANDSAT-8) SZA (LANDSAT-8 ) Date (METOP-B) Time (METOP-B) Lat,Lon (METOP-B) SZA (METOP-B ) Distance(km) Time Diff (sec)
1 11/18/2018 16:41:25 -81.10, 149.22 77.30 11/18/2018 16:41:09 -81.10, 149.19 77.31 0.51 16
2 11/18/2018 17:30:49 81.13, -42.70 102.78 11/18/2018 17:31:47 81.13, -42.71 102.80 0.43 58
3 11/21/2018 12:15:39 -81.10,-144.31 76.67 11/21/2018 12:15:33 -81.11,-144.24 76.67 1.27 6
4 11/21/2018 13:05:04 81.13, 23.74 103.40 11/21/2018 13:06:12 81.13, 23.85 103.44 1.83 68
5 11/24/2018 07:00:28 81.08, 114.11 103.84 11/24/2018 06:59:20 81.08, 113.97 103.79 2.28 68
6 11/24/2018 07:49:54 -81.10, -77.89 76.11 11/24/2018 07:49:59 -81.10, -78.06 76.12 2.86 5
7 11/27/2018 02:34:42 81.10,-179.18 104.40 11/27/2018 02:33:44 81.10,-179.12 104.38 1.06 58
8 11/27/2018 03:24:08 -81.12, -11.16 75.55 11/27/2018 03:24:23 -81.12, -11.14 75.54 0.71 15
9 11/29/2018 22:08:56 81.09,-112.88 104.84 11/29/2018 22:08:09 81.09,-112.98 104.81 1.76 47




NCC Satellite Simultaneous Nadir Overpasses (SNOs) Prediction Service
